Tracking 19286 objects as of 18-Nov-2018
HD Live streaming from Space Station
objects crossing your sky now

PALAPA B1

Track PALAPA B1 now!
PALAPA B1 is classified as:


NORAD ID: 14134
Int'l Code: 1983-059C
Perigee: 35,797.4 km
Apogee: 35,841.5 km
Inclination: 14.7 °
Period: 1,437.4 minutes
Semi major axis: 42190 km
RCS: 1.2604 m2 (large)
Launch date: June 18, 1983
Source: Indonesia (INDO)
Launch site: AIR FORCE EASTERN TEST RANGE (AFETR)
aabbcc
Your satellite tracking list
Your tracking list is empty




NASA's NSSDC Master Catalog

Two Line Element Set (TLE):
1 14134U 83059C   18322.15086493  .00000105  00000-0  00000+0 0  9995
2 14134  14.6914 352.5102 0005226 336.6167 342.7386  1.00180089 93096
Source of the keplerian elements: AFSPC